Temperature
11 12 11 11 11 9 9 9 10 9 9 10 9 8 9 9 9 9 9 9 9 8 7 6 6 5 5 5 4 4 4 4 4 4 4 4 4 3 3 3 2 2 1 1
11 10 9 9 9 9 9 9 8 8 8 8 9 9 8 9 9 9 9 8 7 7 6 5 5 4 4 4 4 4 4 4 4 3 3 3 3 3 2 2 1 1 0 0
9 9 10 9 9 9 8 7 8 8 8 7 7 7 8 9 9 8 8 7 6 6 5 5 4 4 4 4 4 3 3 3 3 3 3 2 2 2 1 1 0 -0 -0 -1
7 9 9 10 10 9 8 8 7 8 7 7 7 8 9 9 8 8 7 6 6 5 5 4 4 3 3 3 3 3 3 3 3 2 2 1 1 1 0 -0 -1 -1 -2 -2
6 7 7 9 9 8 8 8 7 6 6 7 8 7 8 8 7 7 6 5 5 4 4 4 3 3 3 3 3 3 2 2 2 1 1 1 1 0 -1 -1 -2 -2 -3 -3
5 7 8 9 10 9 8 8 7 7 6 7 6 5 6 7 7 6 5 5 4 4 4 3 3 3 3 3 2 2 2 2 1 1 0 -0 -0 -1 -1 -2 -3 -3 -3 -3
5 6 7 8 9 9 8 9 8 8 8 7 6 6 7 6 6 5 5 4 4 3 3 3 3 2 2 2 2 1 1 1 1 0 -0 -1 -1 -2 -3 -3 -4 -4 -4 -5
5 5 7 8 7 8 8 8 8 8 8 7 7 6 6 5 5 4 4 4 3 3 3 3 3 2 2 2 1 1 1 1 0 -0 -1 -1 -2 -2 -3 -4 -5 -5 -6 -6
6 8 8 8 8 9 9 9 8 8 7 7 6 5 5 4 4 4 4 3 3 3 3 3 2 2 1 1 1 1 0 0 -0 -1 -1 -2 -3 -3 -4 -5 -6 -6 -7 -7
5 5 7 8 8 8 8 8 7 7 6 6 5 4 4 4 4 3 3 3 3 2 2 2 2 2 1 1 0 -0 -0 -1 -1 -1 -2 -3 -4 -4 -5 -6 -6 -7 -7 -7
5 5 6 6 7 7 7 7 6 6 5 5 4 4 3 3 3 3 3 3 2 2 2 2 1 1 1 0 -0 -1 -1 -1 -2 -2 -3 -4 -4 -5 -6 -6 -7 -7 -6 -6
6 6 5 6 7 7 6 6 5 5 4 4 3 3 3 3 3 3 3 2 2 2 1 1 1 1 0 -0 -1 -2 -2 -2 -3 -4 -4 -5 -6 -6 -6 -7 -6 -7 -6 -6
6 7 7 7 6 6 5 5 4 4 3 3 3 3 3 3 3 2 2 2 1 1 1 0 0 0 -0 -1 -2 -2 -3 -3 -4 -4 -5 -6 -7 -7 -7 -7 -6 -6 -6 -6
6 6 5 5 5 5 4 4 3 3 3 3 3 3 2 2 2 2 2 1 1 1 0 0 -0 -0 -1 -2 -2 -3 -3 -4 -5 -5 -6 -6 -7 -7 -8 -8 -7 -7 -6 -6
5 5 5 4 4 4 3 3 3 3 3 3 3 2 2 2 2 2 1 1 0 0 -0 -1 -1 -1 -2 -2 -3 -3 -4 -4 -5 -6 -7 -7 -7 -8 -8 -8 -8 -7 -7 -6
4 4 4 4 3 3 3 3 3 3 3 2 2 2 2 1 1 1 1 0 -0 -1 -1 -1 -2 -2 -2 -3 -3 -4 -4 -5 -6 -6 -7 -7 -8 -8 -8 -8 -7 -7 -7 -7
3 3 3 3 3 3 2 2 2 2 2 2 2 1 1 1 1 0 0 -0 -1 -1 -1 -2 -2 -2 -3 -3 -4 -5 -5 -5 -6 -7 -7 -8 -8 -8 -8 -8 -8 -7 -7 -7
3 3 2 2 2 2 2 2 2 2 1 1 1 0 0 -0 -0 -0 -1 -1 -1 -1 -1 -2 -3 -3 -3 -4 -5 -5 -6 -6 -7 -7 -8 -8 -8 -8 -8 -8 -8 -8 -7 -7
2 2 2 2 2 2 1 1 1 1 1 0 0 -0 -0 -1 -1 -1 -2 -2 -2 -2 -2 -3 -4 -4 -4 -4 -5 -6 -6 -7 -7 -8 -8 -8 -8 -8 -8 -8 -8 -8 -7 -7
2 2 2 1 1 1 1 1 1 0 0 -0 -1 -1 -1 -1 -1 -2 -3 -3 -3 -3 -4 -4 -4 -4 -5 -5 -6 -6 -7 -7 -8 -8 -8 -9 -9 -9 -8 -8 -8 -8 -8 -7
1 1 1 1 1 1 0 0 -0 -0 -1 -1 -1 -2 -2 -2 -2 -3 -3 -4 -3 -4 -4 -4 -5 -5 -5 -6 -6 -7 -7 -8 -8 -8 -9 -9 -9 -9 -9 -8 -8 -8 -8 -8
0 0 0 0 -0 -0 -0 -1 -1 -1 -1 -2 -2 -2 -3 -3 -3 -4 -4 -4 -4 -4 -5 -5 -5 -5 -6 -7 -7 -7 -8 -8 -8 -9 -9 -9 -9 -9 -9 -9 -8 -8 -8 -8
-0 -0 -0 -1 -1 -1 -1 -1 -1 -2 -2 -2 -3 -3 -3 -4 -4 -5 -5 -4 -5 -5 -5 -5 -6 -6 -7 -7 -7 -8 -8 -8 -9 -9 -9 -9 -9 -9 -9 -9 -9 -8 -8 -8
-1 -1 -1 -1 -2 -2 -2 -2 -2 -2 -3 -3 -3 -3 -4 -4 -5 -5 -5 -5 -5 -6 -6 -6 -6 -7 -7 -8 -8 -8 -9 -9 -9 -10 -10 -10 -9 -9 -9 -9 -9 -9 -9 -8
-1 -2 -2 -2 -2 -2 -2 -3 -3 -3 -3 -4 -4 -4 -5 -5 -5 -5 -6 -6 -6 -6 -6 -6 -7 -7 -8 -8 -8 -9 -9 -10 -10 -10 -10 -10 -9 -9 -9 -9 -9 -9 -9 -9
-2 -2 -2 -3 -3 -3 -3 -4 -4 -4 -4 -5 -5 -5 -6 -6 -6 -6 -6 -6 -7 -7 -7 -7 -8 -8 -8 -9 -9 -9 -10 -10 -10 -10 -10 -10 -10 -9 -9 -9 -9 -9 -9 -9
-2 -3 -3 -3 -3 -4 -4 -5 -5 -5 -6 -6 -6 -6 -6 -7 -7 -7 -7 -7 -7 -8 -8 -8 -8 -9 -9 -10 -10 -10 -10 -10 -10 -10 -10 -10 -10 -9 -9 -9 -9 -9 -9 -9
Wind_Speed
6 3 4 6 8 9 11 10 12 10 11 11 9 8 7 6 5 5 2 0 2 3 4 5 5 6 6 7 7 7 8 9 9 10 10 10 10 11 11 11 12 12 13 14
3 1 3 6 11 12 12 10 10 10 11 6 3 5 6 6 6 5 3 3 4 5 5 5 5 6 7 7 8 8 9 10 10 10 10 11 12 12 12 12 12 12 13 14
4 2 4 9 11 11 8 8 9 10 8 4 4 6 7 7 7 5 3 4 5 5 5 5 6 6 7 8 8 9 10 10 11 11 11 12 13 13 14 14 13 13 13 14
2 2 8 8 2 6 6 6 8 6 4 6 6 4 3 5 6 5 3 4 5 5 5 5 5 6 8 8 9 9 10 11 11 11 12 13 13 14 14 13 13 14 14 15
4 5 9 9 5 7 7 6 6 7 7 5 3 3 3 3 4 4 3 3 4 5 5 5 7 8 8 9 9 10 11 11 11 11 13 14 15 15 14 14 15 14 14 15
5 5 8 8 2 4 4 5 5 8 8 6 5 1 4 2 2 2 3 3 4 5 5 6 8 7 8 10 10 11 12 12 12 12 13 15 16 16 15 14 16 15 15 14
7 7 9 7 3 5 4 6 6 8 7 7 7 5 3 1 2 2 3 4 5 6 7 8 8 8 9 11 12 12 12 12 12 12 12 14 15 14 14 15 15 15 17 15
7 6 10 4 8 8 6 3 7 7 6 6 6 3 2 2 3 4 5 5 6 6 8 9 8 8 10 12 13 12 12 12 13 12 12 13 14 15 14 14 16 16 16 16
10 8 3 3 5 3 6 6 6 5 5 4 3 2 2 3 4 5 6 6 6 7 9 10 9 9 11 13 13 13 13 13 13 13 11 11 13 15 15 12 13 15 14 15
5 7 5 2 3 3 4 5 5 4 3 3 3 2 3 4 5 5 6 7 6 8 9 12 11 10 11 13 12 13 14 14 13 13 14 12 10 11 12 13 14 15 15 15
5 5 1 3 5 5 4 5 4 3 2 2 3 3 3 4 6 6 7 7 7 8 10 13 13 12 12 12 12 13 14 14 13 12 13 14 12 10 13 12 15 18 15 15
7 6 6 5 5 6 5 3 3 2 1 1 2 4 4 5 6 7 8 8 9 10 11 13 13 13 13 11 10 12 13 13 11 11 12 12 14 15 19 21 27 28 26 24
3 2 4 2 4 4 4 3 2 3 3 2 3 4 4 5 6 7 8 10 11 12 12 13 14 15 14 11 10 11 13 14 12 11 12 13 14 15 17 19 23 25 25 26
2 4 3 3 3 4 4 3 3 2 1 2 3 4 5 6 7 9 11 11 11 12 13 14 14 15 14 11 10 11 11 14 14 12 12 13 14 14 15 17 18 15 18 25
1 2 4 4 5 4 3 3 2 0 2 3 4 5 6 8 10 11 12 11 11 12 13 14 14 16 12 10 11 12 11 10 11 11 12 12 13 14 14 16 16 15 15 17
2 4 5 5 4 3 2 2 1 3 4 5 6 8 9 9 11 12 12 11 11 13 14 14 15 15 12 11 11 10 10 18 18 13 12 13 13 14 14 15 15 14 14 14
4 4 4 3 2 2 2 2 4 5 6 8 9 10 10 10 11 12 13 11 11 13 13 14 16 14 12 11 11 10 10 13 19 15 12 13 13 14 14 14 14 14 14 16
4 3 3 3 2 2 3 4 5 7 7 9 10 10 10 11 13 15 14 13 12 13 13 13 13 12 11 11 10 9 10 11 11 12 12 12 14 13 13 14 14 15 14 15
5 4 3 1 1 2 4 6 7 7 9 9 10 11 12 12 13 14 14 13 13 16 13 10 16 13 11 13 15 9 10 12 12 12 12 17 16 12 13 14 14 14 14 13
3 2 2 2 3 3 6 7 8 9 9 9 10 11 13 13 13 13 13 13 12 12 12 14 13 11 11 11 16 9 10 11 12 13 13 13 13 13 13 14 14 14 13 12
3 3 4 5 6 7 7 8 9 10 10 10 11 13 14 15 13 11 12 14 12 11 11 17 12 9 9 12 16 9 8 10 11 12 13 13 13 14 14 13 13 13 12 12
4 5 6 7 7 9 9 8 9 11 11 11 12 12 13 14 13 12 11 11 13 16 12 9 8 13 16 19 9 7 8 10 11 11 11 12 13 14 13 13 13 12 11 11
6 6 7 8 9 9 10 10 10 10 11 12 13 13 14 13 11 12 14 9 8 16 13 9 14 22 24 13 7 8 9 11 12 12 12 12 13 13 13 13 12 11 11 10
7 8 8 9 8 9 11 12 11 10 11 12 12 12 12 12 11 9 10 16 19 20 11 15 22 23 22 8 7 8 9 10 11 12 12 12 12 12 12 12 12 11 10 10
8 9 9 9 9 9 11 11 11 11 10 10 11 11 10 9 11 11 10 11 17 19 11 15 21 22 13 8 9 9 9 10 12 13 11 12 12 12 12 11 11 11 9 8
8 8 9 9 9 9 9 9 9 10 10 11 11 9 8 8 9 10 10 11 13 17 13 10 11 14 9 9 10 10 10 12 13 12 12 12 12 12 12 11 12 10 8 7
8 8 8 8 8 8 8 8 10 11 10 11 13 11 9 9 9 10 11 10 10 10 10 9 9 9 9 9 10 10 10 10 10 11 11 11 11 11 11 12 10 9 7 6
Wind_Direction
238 218 188 216 212 196 203 207 219 235 231 239 234 219 198 178 162 152 153 326 321 316 314 319 324 322 319 314 314 315 313 308 301 298 297 296 295 293 292 289 288 286 287 287
262 188 223 257 244 228 230 230 237 259 266 245 216 154 160 172 173 180 207 269 298 308 312 314 313 310 311 309 308 309 305 299 297 298 299 298 297 297 295 292 290 287 287 288
245 304 350 271 241 220 215 210 202 230 243 170 149 163 179 190 193 196 229 274 292 297 295 296 295 297 298 296 301 303 299 297 297 297 298 298 299 299 296 295 291 290 288 287
176 133 238 245 195 181 198 226 211 210 187 164 168 183 212 195 187 207 249 275 287 289 290 291 289 292 291 293 297 298 297 296 296 297 297 299 299 297 296 294 293 292 293 292
157 222 273 287 242 183 191 247 205 177 167 152 109 41 324 214 181 199 235 257 264 268 274 283 289 290 296 298 298 297 296 295 296 296 298 301 301 300 299 299 298 295 294 294
155 197 244 250 188 159 122 255 202 162 161 156 126 98 269 227 200 255 277 275 276 284 287 288 287 293 297 296 298 297 295 295 295 295 296 298 299 300 300 298 298 299 298 294
188 219 258 251 181 132 183 247 171 162 166 167 182 202 220 303 292 286 294 291 290 291 287 283 288 295 292 293 292 291 292 294 295 293 292 294 296 297 299 300 299 299 298 296
170 201 249 205 145 183 208 131 141 157 171 186 212 244 282 302 303 313 310 302 298 291 287 288 289 289 289 291 291 293 295 297 297 296 295 300 299 300 299 299 301 302 302 301
194 212 265 190 195 183 143 141 158 167 183 186 211 251 290 303 304 300 292 287 284 281 287 291 288 282 286 292 296 299 300 299 300 300 296 292 294 299 303 301 301 303 303 302
236 260 245 215 154 141 140 142 153 154 157 163 200 245 277 284 285 288 285 284 284 289 290 294 293 287 282 290 296 298 299 302 302 303 304 300 293 294 298 301 301 301 301 301
243 263 199 221 197 165 136 119 113 104 123 168 198 242 256 268 277 278 281 282 280 282 286 289 293 291 288 289 294 296 298 299 301 300 301 304 300 294 297 291 292 299 301 301
221 218 192 216 198 168 155 157 157 157 174 195 201 234 258 265 268 273 278 281 285 285 285 289 292 292 291 287 286 291 299 301 301 303 303 303 305 304 299 300 302 303 302 301
221 192 172 154 138 143 151 159 159 174 193 218 241 240 251 265 271 275 280 283 283 283 285 289 292 292 291 289 286 284 288 296 300 300 302 304 305 307 309 309 306 305 305 305
188 130 123 134 140 135 132 131 133 142 199 231 246 257 260 266 275 280 281 280 280 283 286 287 289 289 289 288 286 284 286 294 298 297 298 300 302 304 305 307 310 309 307 308
83 134 148 130 117 114 117 121 117 305 289 285 266 269 273 275 279 280 281 283 284 283 284 285 288 290 290 288 287 288 290 293 294 294 296 299 301 303 303 302 302 303 305 307
89 91 108 112 119 125 130 139 182 275 279 279 282 281 278 275 277 281 282 281 281 284 287 289 289 290 291 289 289 290 289 297 305 303 302 302 302 303 303 302 302 303 304 306
146 141 137 137 146 162 200 226 244 262 273 277 278 282 285 287 288 287 286 281 276 278 281 284 286 290 289 286 285 290 292 297 303 303 299 300 302 302 302 302 303 303 302 303
153 149 149 156 178 228 274 276 269 271 271 273 281 285 285 285 287 289 291 292 291 288 282 277 279 285 283 282 285 288 290 294 295 297 299 301 302 301 302 302 302 302 303 306
99 101 99 107 210 243 262 275 278 277 279 282 284 283 281 281 282 285 289 291 293 295 293 282 294 297 288 289 297 289 290 293 296 299 301 303 305 302 301 300 301 302 304 306
64 56 31 333 302 271 274 279 282 283 282 282 284 286 288 287 285 287 289 288 282 277 282 290 293 284 282 286 297 289 287 293 300 304 303 302 301 301 301 301 302 303 304 305
353 334 320 306 296 287 279 279 283 284 286 284 282 284 287 290 289 287 289 294 290 280 284 294 296 289 291 294 298 292 291 298 302 303 302 302 302 302 301 301 302 304 305 306
302 298 297 295 293 292 288 284 281 283 286 286 283 283 286 290 292 289 276 276 286 294 299 288 285 294 302 304 297 293 295 300 302 301 300 300 301 301 301 301 303 304 305 304
286 284 286 286 286 286 289 287 283 281 282 283 284 285 285 286 288 291 295 289 287 296 302 289 296 303 307 309 297 295 297 299 300 300 299 299 298 299 300 301 303 304 303 303
283 283 282 283 287 289 289 287 284 281 277 279 278 276 279 287 289 277 275 291 300 302 299 296 304 307 311 308 295 294 294 296 298 297 297 298 298 299 300 300 301 301 301 301
277 279 281 284 285 281 279 285 289 287 284 284 280 276 273 271 279 289 290 291 297 302 297 299 304 308 309 294 292 292 293 294 297 302 302 303 300 300 300 300 299 301 300 300
271 273 272 268 267 274 278 282 285 288 291 293 293 288 283 281 280 285 289 288 287 295 298 294 294 298 295 291 291 292 293 298 301 301 298 299 300 300 300 299 299 300 299 299
271 271 274 278 273 265 266 273 279 285 288 290 293 294 291 291 291 291 291 292 292 292 292 292 291 290 291 291 291 292 294 296 297 298 299 299 300 299 300 300 300 299 299 298
Height
1518 1517 1519 1519 1519 1523 1525 1523 1523 1517 1515 1509 1508 1508 1509 1510 1512 1513 1515 1515 1515 1514 1512 1510 1508 1505 1503 1500 1497 1493 1489 1485 1480 1476 1470 1465 1459 1454 1448 1442 1436 1430 1424 1417
1518 1517 1520 1521 1516 1516 1515 1515 1515 1512 1509 1504 1503 1504 1507 1508 1510 1511 1513 1513 1512 1511 1509 1506 1504 1501 1499 1496 1492 1488 1484 1479 1474 1468 1463 1457 1451 1445 1439 1433 1426 1420 1413 1407
1523 1520 1518 1519 1506 1506 1508 1507 1508 1508 1504 1502 1503 1504 1505 1507 1508 1509 1510 1510 1509 1507 1505 1503 1500 1498 1494 1491 1487 1483 1478 1473 1467 1461 1455 1449 1443 1436 1430 1423 1416 1409 1403 1397
1524 1521 1523 1503 1497 1498 1500 1500 1500 1500 1500 1501 1502 1503 1505 1506 1507 1507 1507 1507 1505 1503 1501 1499 1497 1494 1490 1486 1482 1477 1472 1466 1461 1454 1447 1441 1434 1427 1420 1413 1406 1399 1392 1386
1527 1524 1515 1502 1495 1496 1499 1498 1496 1497 1499 1501 1502 1503 1504 1504 1505 1505 1505 1503 1502 1500 1498 1495 1493 1489 1485 1481 1476 1471 1465 1459 1453 1447 1440 1433 1426 1419 1412 1404 1396 1390 1383 1376
1525 1522 1515 1497 1491 1491 1495 1497 1494 1494 1497 1500 1502 1506 1505 1503 1502 1502 1501 1500 1498 1496 1494 1492 1488 1484 1480 1475 1470 1464 1458 1452 1446 1440 1433 1425 1418 1410 1403 1396 1388 1381 1373 1367
1519 1518 1505 1491 1489 1491 1499 1493 1491 1493 1495 1497 1499 1501 1501 1500 1500 1499 1498 1496 1495 1493 1490 1487 1483 1479 1474 1469 1463 1457 1451 1445 1439 1432 1426 1418 1410 1402 1395 1387 1379 1371 1364 1357
1514 1516 1503 1486 1488 1490 1489 1487 1489 1492 1494 1496 1497 1497 1497 1497 1496 1495 1494 1493 1491 1488 1486 1483 1479 1473 1467 1462 1457 1450 1443 1437 1430 1424 1417 1410 1402 1394 1387 1379 1371 1362 1355 1348
1494 1490 1485 1483 1483 1484 1485 1487 1489 1491 1492 1493 1494 1494 1494 1494 1493 1492 1491 1489 1487 1484 1480 1477 1473 1468 1461 1455 1449 1442 1435 1429 1422 1415 1409 1402 1394 1386 1378 1371 1364 1356 1349 1342
1489 1484 1482 1482 1482 1483 1485 1486 1488 1489 1490 1491 1491 1491 1491 1491 1490 1489 1487 1485 1482 1479 1474 1470 1466 1462 1456 1449 1442 1435 1427 1420 1414 1406 1399 1392 1386 1379 1372 1364 1357 1351 1344 1337
1485 1481 1480 1480 1481 1482 1484 1485 1486 1487 1488 1488 1488 1488 1488 1487 1486 1485 1483 1480 1477 1473 1468 1463 1459 1454 1448 1442 1435 1427 1420 1413 1406 1399 1391 1384 1377 1372 1365 1358 1354 1347 1340 1334
1479 1476 1477 1477 1478 1481 1482 1483 1484 1485 1485 1486 1486 1486 1485 1484 1483 1480 1478 1475 1471 1467 1462 1457 1451 1446 1440 1435 1428 1420 1412 1405 1398 1391 1384 1377 1369 1361 1356 1352 1346 1341 1335 1329
1474 1473 1474 1475 1477 1479 1480 1481 1482 1483 1483 1484 1483 1483 1482 1480 1478 1476 1473 1469 1465 1460 1455 1449 1443 1437 1432 1426 1420 1413 1406 1399 1391 1384 1377 1370 1363 1355 1347 1340 1337 1332 1326 1321
1471 1472 1473 1474 1476 1477 1478 1479 1480 1481 1481 1481 1480 1479 1478 1475 1473 1470 1466 1462 1458 1453 1447 1441 1435 1429 1424 1418 1411 1405 1398 1392 1385 1378 1371 1364 1358 1351 1344 1336 1328 1321 1318 1313
1470 1471 1472 1473 1474 1476 1477 1477 1478 1478 1478 1478 1477 1475 1473 1470 1466 1463 1459 1455 1450 1444 1439 1433 1427 1421 1416 1409 1403 1397 1390 1384 1377 1371 1365 1359 1352 1346 1339 1332 1325 1318 1311 1305
1468 1469 1470 1472 1473 1474 1475 1475 1475 1475 1475 1473 1472 1470 1467 1463 1459 1455 1451 1447 1441 1435 1430 1424 1418 1413 1407 1401 1395 1389 1383 1377 1371 1364 1358 1352 1346 1340 1333 1327 1320 1313 1307 1301
1466 1468 1469 1470 1471 1472 1473 1473 1472 1471 1470 1468 1466 1463 1459 1455 1451 1446 1442 1438 1432 1426 1421 1416 1410 1404 1399 1393 1387 1381 1375 1369 1364 1358 1352 1346 1340 1333 1327 1321 1315 1308 1302 1297
1465 1467 1468 1469 1469 1470 1470 1469 1468 1467 1465 1462 1459 1456 1452 1447 1442 1437 1432 1427 1422 1416 1412 1408 1402 1396 1391 1386 1380 1374 1368 1362 1356 1351 1345 1339 1333 1327 1321 1315 1309 1303 1296 1291
1465 1466 1467 1467 1467 1467 1466 1465 1463 1461 1459 1455 1452 1447 1443 1439 1434 1429 1424 1418 1413 1406 1402 1398 1393 1388 1383 1378 1373 1367 1361 1355 1350 1344 1338 1332 1326 1320 1314 1309 1303 1298 1292 1287
1464 1465 1465 1464 1464 1463 1461 1459 1457 1454 1452 1448 1444 1439 1434 1430 1426 1421 1415 1410 1405 1400 1394 1389 1385 1380 1375 1371 1366 1360 1354 1349 1343 1337 1331 1325 1319 1313 1308 1303 1298 1292 1287 1282
1462 1462 1461 1460 1459 1457 1456 1453 1450 1447 1443 1440 1436 1431 1426 1421 1417 1412 1406 1400 1395 1392 1387 1382 1378 1373 1368 1363 1358 1353 1348 1342 1336 1330 1324 1318 1313 1307 1302 1297 1292 1287 1282 1277
1458 1457 1456 1455 1453 1451 1449 1446 1443 1439 1435 1431 1427 1423 1418 1412 1408 1403 1398 1394 1388 1384 1379 1375 1370 1366 1361 1356 1351 1346 1340 1335 1329 1323 1317 1312 1307 1301 1296 1292 1287 1282 1277 1273
1454 1453 1451 1449 1446 1443 1441 1438 1435 1431 1427 1423 1419 1414 1410 1405 1400 1395 1389 1385 1381 1377 1372 1367 1363 1358 1354 1349 1343 1338 1333 1327 1321 1316 1311 1306 1301 1296 1291 1286 1282 1277 1273 1268
1449 1447 1445 1443 1440 1436 1433 1430 1427 1423 1419 1415 1410 1407 1402 1397 1391 1388 1383 1378 1374 1369 1364 1360 1355 1351 1346 1341 1336 1330 1325 1320 1315 1309 1304 1300 1295 1290 1286 1281 1276 1272 1268 1264
1443 1441 1438 1435 1432 1429 1425 1421 1418 1414 1410 1405 1401 1397 1394 1389 1384 1379 1375 1370 1366 1361 1356 1352 1347 1343 1338 1333 1328 1323 1318 1313 1308 1303 1298 1294 1289 1284 1280 1276 1272 1268 1264 1260
1436 1433 1431 1428 1425 1422 1418 1414 1409 1405 1401 1396 1391 1388 1384 1380 1376 1371 1366 1362 1357 1353 1348 1343 1339 1334 1330 1325 1320 1316 1311 1306 1301 1296 1292 1287 1283 1279 1275 1271 1267 1263 1260 1257
1429 1426 1423 1420 1417 1414 1410 1406 1401 1397 1393 1388 1383 1378 1375 1371 1367 1362 1357 1353 1348 1344 1339 1335 1330 1326 1322 1317 1313 1308 1304 1299 1295 1290 1286 1281 1277 1273 1269 1266 1262 1259 1256 1254